Home   Weather   Asuncion   Past weeks

Flag for Paraguay Past Weather in Asuncion, Paraguay — Yesterday and Last 2 Weeks

Now
81 °F

Sunny.


Feels Like: 86 °F
Forecast: 74 / 94 °F
Wind: No wind

Location: Asuncion / Aeropuerto

Current Time: Feb 27, 2017 at 8:23:15 am

Latest Report: Feb 27, 2017 at 8:00 am


Visibility: 10 mi

Pressure: 29.83 "Hg

Humidity: 84%

Dew Point: 75 °F

Location of AsuncionLocation

Past Weather in Asuncion — Graph

°F

Asuncion Temperature Yesterday

Maximum temperature yesterday: 95 °F (at 1:00 pm)
Minimum temperature yesterday: 75 °F (at 3:00 am)
Average temperature yesterday: 83 °F

High & Low Weather Summary for the Past Weeks

 TemperatureHumidityPressure
High102 °F (Feb 21, 4:00 pm)100% (Feb 14, 7:00 am)30.01 "Hg (Feb 14, 7:00 am)
Low68 °F (Feb 14, 6:00 am)35% (Feb 21, 4:00 pm)29.71 "Hg (Feb 25, 6:00 pm)
Average83 °F73%29.86 "Hg
* Reported Feb 12 7:00 am — Feb 27 7:00 am, Asuncion, Weather by CustomWeather, © 2017

Note: Actual official high and low records may vary slightly from our data, if they occured in-between our weather recording intervals... More about our weather records

Advertising

Asuncion Weather History for the Previous 24 Hours

Scroll right to see more
 ConditionsComfort  
Time TempWeatherWind HumidityBarometerVisibility
7:00 am
Mon, Feb 27
75 °FClear.No wind94%29.80 "Hg6 mi
6:00 am73 °FClear.2 mph100%29.80 "Hg6 mi
5:00 am75 °FClear.No wind94%29.77 "Hg6 mi
4:00 am77 °FClear.No wind89%29.80 "Hg6 mi
3:00 am77 °FClear.No wind89%29.80 "Hg6 mi
2:00 am77 °FClear.No wind94%29.80 "Hg6 mi
1:00 am77 °FClear.No wind94%29.80 "Hg6 mi
12:00 am77 °FClear.No wind94%29.80 "Hg6 mi
11:00 pm
Sun, Feb 26
77 °FClear.No wind94%29.83 "Hg6 mi
10:00 pm79 °FPassing clouds.No wind89%29.80 "Hg6 mi
9:00 pm81 °FPassing clouds.3 mph84%29.80 "Hg6 mi
8:00 pm84 °FPartly cloudy.2 mph74%29.77 "Hg6 mi
7:00 pm88 °FBroken clouds.No wind66%29.77 "HgN/A
6:00 pm86 °FPartly sunny.2 mph66%29.77 "HgN/A
5:00 pm88 °FPartly sunny.5 mph62%29.77 "HgN/A
4:00 pm86 °FBroken clouds.5 mph55%29.80 "HgN/A
3:00 pm91 °FThundershowers. Partly sunny.9 mph52%29.80 "HgN/A
2:00 pm91 °FPartly sunny.7 mph56%29.83 "HgN/A
1:00 pm95 °FPartly sunny.3 mph50%29.86 "HgN/A
12:00 pm91 °FScattered clouds.3 mph56%29.86 "HgN/A
11:00 am90 °FSunny.2 mph63%29.86 "Hg10 mi
10:30 am90 °FSunny.2 mph59%29.86 "Hg10 mi
10:00 am88 °FSunny.2 mph62%29.86 "Hg10 mi
9:30 am86 °FSunny.2 mph66%29.86 "Hg10 mi
9:00 am84 °FSunny.2 mph74%29.86 "Hg10 mi
8:30 am82 °FSunny.2 mph79%29.83 "Hg10 mi
8:00 am81 °FClear.No wind79%29.83 "Hg6 mi
Weather by CustomWeather, © 2017

See weather overviewHow to use our weather pages